Stündliche Wetter Holubeche

Heute, 15 Juni, Dienstag

Zeit Temperatur Niederschläge Wind Luftdruck Luftfeuchtigkeit
00:00 +15°C° 0.1 mm 2 m/S 737 mmHg 87%
01:00 +15°C° 0.1 mm 2 m/S 737 mmHg 89%
02:00 +15°C° 0.1 mm 2 m/S 737 mmHg 92%
03:00 +14°C° 0.2 mm 3 m/S 737 mmHg 93%
04:00 +14°C° 0.2 mm 3 m/S 737 mmHg 94%
05:00 +14°C° 0.2 mm 3 m/S 737 mmHg 95%
06:00 +17°C° 0 mm 3 m/S 738 mmHg 91%
07:00 +18°C° 0 mm 4 m/S 738 mmHg 87%
08:00 +20°C° 0 mm 4 m/S 738 mmHg 82%
09:00 +21°C° 0.7 mm 4 m/S 738 mmHg 77%
10:00 +22°C° 0.7 mm 4 m/S 738 mmHg 71%
11:00 +25°C° 0.7 mm 4 m/S 738 mmHg 66%
12:00 +25°C° 0.6 mm 5 m/S 737 mmHg 66%
13:00 +25°C° 0.6 mm 5 m/S 737 mmHg 67%
14:00 +25°C° 0.6 mm 5 m/S 737 mmHg 68%
15:00 +25°C° 0.3 mm 5 m/S 737 mmHg 70%
16:00 +23°C° 0.3 mm 5 m/S 736 mmHg 73%
17:00 +23°C° 0.3 mm 5 m/S 736 mmHg 75%
18:00 +22°C° 0.6 mm 5 m/S 736 mmHg 80%
19:00 +20°C° 0.6 mm 5 m/S 736 mmHg 84%
20:00 +19°C° 0.6 mm 4 m/S 736 mmHg 89%
21:00 +18°C° 0.4 mm 4 m/S 736 mmHg 90%
22:00 +18°C° 0.4 mm 4 m/S 736 mmHg 92%
23:00 +17°C° 0.4 mm 4 m/S 736 mmHg 93%

Morgen, 16 Juni, Mittwoch

Zeit Temperatur Niederschläge Wind Luftdruck Luftfeuchtigkeit
00:00 +17°C° 0.2 mm 4 m/S 736 mmHg 94%
01:00 +16°C° 0.2 mm 5 m/S 735 mmHg 95%
02:00 +15°C° 0.2 mm 5 m/S 735 mmHg 95%
03:00 +15°C° 0.4 mm 5 m/S 736 mmHg 95%
04:00 +16°C° 0.4 mm 6 m/S 736 mmHg 95%
05:00 +16°C° 0.4 mm 6 m/S 736 mmHg 95%
06:00 +16°C° 0.4 mm 6 m/S 736 mmHg 94%
07:00 +17°C° 0.4 mm 6 m/S 736 mmHg 93%
08:00 +17°C° 0.4 mm 6 m/S 737 mmHg 92%
09:00 +19°C° 0.5 mm 6 m/S 737 mmHg 89%
10:00 +20°C° 0.5 mm 6 m/S 737 mmHg 87%
11:00 +21°C° 0.5 mm 5 m/S 737 mmHg 84%
12:00 +21°C° 1.5 mm 5 m/S 737 mmHg 84%
13:00 +21°C° 1.5 mm 5 m/S 737 mmHg 83%
14:00 +22°C° 1.5 mm 5 m/S 737 mmHg 82%
15:00 +21°C° 2.5 mm 5 m/S 737 mmHg 83%
16:00 +21°C° 2.5 mm 5 m/S 737 mmHg 84%
17:00 +21°C° 2.5 mm 5 m/S 737 mmHg 84%
18:00 +20°C° 0.9 mm 4 m/S 738 mmHg 87%
19:00 +19°C° 0.9 mm 4 m/S 738 mmHg 89%
20:00 +18°C° 0.9 mm 3 m/S 738 mmHg 91%
21:00 +18°C° 0 mm 3 m/S 738 mmHg 93%
22:00 +17°C° 0 mm 3 m/S 739 mmHg 94%
23:00 +17°C° 0 mm 3 m/S 739 mmHg 95%

übermorgen, 17 Juni, Donnerstag

Zeit Temperatur Niederschläge Wind Luftdruck Luftfeuchtigkeit
00:00 +17°C° 0.1 mm 3 m/S 739 mmHg 95%
01:00 +16°C° 0.1 mm 3 m/S 739 mmHg 96%
02:00 +16°C° 0.1 mm 3 m/S 739 mmHg 96%
03:00 +16°C° 0 mm 3 m/S 739 mmHg 96%
04:00 +16°C° 0 mm 3 m/S 739 mmHg 96%
05:00 +15°C° 0 mm 4 m/S 739 mmHg 96%
06:00 +18°C° 0 mm 4 m/S 740 mmHg 94%
07:00 +19°C° 0 mm 5 m/S 740 mmHg 92%
08:00 +20°C° 0 mm 6 m/S 740 mmHg 89%
09:00 +22°C° 0.2 mm 6 m/S 740 mmHg 85%
10:00 +23°C° 0.2 mm 7 m/S 740 mmHg 81%
11:00 +24°C° 0.2 mm 7 m/S 740 mmHg 76%
12:00 +24°C° 0.3 mm 7 m/S 740 mmHg 75%
13:00 +26°C° 0.3 mm 7 m/S 740 mmHg 74%
14:00 +26°C° 0.3 mm 7 m/S 741 mmHg 73%
15:00 +26°C° 0.2 mm 7 m/S 741 mmHg 76%
16:00 +24°C° 0.2 mm 7 m/S 741 mmHg 78%
17:00 +24°C° 0.2 mm 7 m/S 741 mmHg 80%
18:00 +23°C° 0 mm 7 m/S 741 mmHg 82%
19:00 +22°C° 0 mm 6 m/S 741 mmHg 84%
20:00 +21°C° 0 mm 6 m/S 741 mmHg 87%
21:00 +20°C° 0 mm 6 m/S 742 mmHg 89%
22:00 +20°C° 0 mm 5 m/S 742 mmHg 91%
23:00 +19°C° 0 mm 5 m/S 742 mmHg 93%

18 Juni, Freitag

Zeit Temperatur Niederschläge Wind Luftdruck Luftfeuchtigkeit
00:00 +19°C° 0 mm 5 m/S 742 mmHg 94%
01:00 +17°C° 0 mm 5 m/S 742 mmHg 95%
02:00 +17°C° 0 mm 5 m/S 742 mmHg 97%
03:00 +17°C° 0 mm 5 m/S 742 mmHg 95%
04:00 +17°C° 0 mm 5 m/S 742 mmHg 94%
05:00 +17°C° 0 mm 5 m/S 742 mmHg 93%
06:00 +19°C° 0 mm 5 m/S 742 mmHg 91%
07:00 +20°C° 0 mm 6 m/S 743 mmHg 88%
08:00 +20°C° 0 mm 6 m/S 743 mmHg 85%
09:00 +21°C° 0.1 mm 6 m/S 743 mmHg 84%
10:00 +21°C° 0.1 mm 6 m/S 743 mmHg 83%
11:00 +22°C° 0.1 mm 6 m/S 743 mmHg 82%
12:00 +22°C° 0.2 mm 6 m/S 743 mmHg 81%
13:00 +22°C° 0.2 mm 6 m/S 743 mmHg 81%
14:00 +23°C° 0.2 mm 7 m/S 743 mmHg 80%
15:00 +23°C° 0.4 mm 6 m/S 743 mmHg 81%
16:00 +23°C° 0.4 mm 6 m/S 743 mmHg 81%
17:00 +23°C° 0.4 mm 6 m/S 743 mmHg 82%
18:00 +22°C° 0.3 mm 5 m/S 743 mmHg 85%
19:00 +21°C° 0.3 mm 5 m/S 743 mmHg 88%
20:00 +20°C° 0.3 mm 4 m/S 743 mmHg 92%
21:00 +19°C° 0.1 mm 4 m/S 743 mmHg 93%
22:00 +19°C° 0.1 mm 4 m/S 743 mmHg 95%
23:00 +18°C° 0.1 mm 3 m/S 744 mmHg 96%

19 Juni, Samstag

Zeit Temperatur Niederschläge Wind Luftdruck Luftfeuchtigkeit
00:00 +18°C° 0 mm 3 m/S 744 mmHg 96%
01:00 +18°C° 0 mm 3 m/S 743 mmHg 97%
02:00 +18°C° 0 mm 3 m/S 743 mmHg 97%
03:00 +18°C° 0 mm 3 m/S 744 mmHg 97%
04:00 +18°C° 0 mm 3 m/S 744 mmHg 97%
05:00 +17°C° 0 mm 3 m/S 744 mmHg 98%
06:00 +18°C° 0.1 mm 3 m/S 744 mmHg 95%
07:00 +19°C° 0.1 mm 4 m/S 744 mmHg 92%
08:00 +20°C° 0.1 mm 4 m/S 744 mmHg 90%
09:00 +21°C° 0.3 mm 5 m/S 744 mmHg 86%
10:00 +22°C° 0.3 mm 5 m/S 744 mmHg 82%
11:00 +22°C° 0.3 mm 5 m/S 744 mmHg 77%
12:00 +23°C° 0 mm 5 m/S 744 mmHg 72%
13:00 +25°C° 0 mm 5 m/S 744 mmHg 66%
14:00 +26°C° 0 mm 5 m/S 744 mmHg 61%
15:00 +26°C° 0 mm 5 m/S 744 mmHg 63%
16:00 +25°C° 0 mm 4 m/S 744 mmHg 66%
17:00 +25°C° 0 mm 4 m/S 744 mmHg 68%
18:00 +24°C° 0 mm 3 m/S 744 mmHg 73%
19:00 +21°C° 0 mm 3 m/S 744 mmHg 78%
20:00 +20°C° 0 mm 3 m/S 743 mmHg 82%
21:00 +19°C° 0 mm 3 m/S 744 mmHg 83%
22:00 +19°C° 0 mm 3 m/S 744 mmHg 84%
23:00 +18°C° 0 mm 3 m/S 744 mmHg 85%

20 Juni, Sonntag

Zeit Temperatur Niederschläge Wind Luftdruck Luftfeuchtigkeit
00:00 +18°C° 0 mm 3 m/S 744 mmHg 86%
01:00 +17°C° 0 mm 2 m/S 744 mmHg 87%
02:00 +17°C° 0 mm 2 m/S 744 mmHg 89%
03:00 +17°C° 0 mm 2 m/S 744 mmHg 89%
04:00 +17°C° 0 mm 2 m/S 744 mmHg 89%
05:00 +17°C° 0 mm 2 m/S 744 mmHg 90%
06:00 +18°C° 0 mm 3 m/S 744 mmHg 85%
07:00 +20°C° 0 mm 3 m/S 744 mmHg 80%
08:00 +21°C° 0 mm 4 m/S 744 mmHg 75%
09:00 +22°C° 0 mm 4 m/S 744 mmHg 71%
10:00 +23°C° 0 mm 4 m/S 744 mmHg 67%
11:00 +25°C° 0 mm 4 m/S 744 mmHg 63%
12:00 +25°C° 0 mm 4 m/S 743 mmHg 63%
13:00 +26°C° 0 mm 4 m/S 743 mmHg 62%
14:00 +26°C° 0 mm 4 m/S 743 mmHg 61%
15:00 +26°C° 0 mm 4 m/S 743 mmHg 64%
16:00 +26°C° 0 mm 4 m/S 743 mmHg 67%
17:00 +26°C° 0 mm 4 m/S 742 mmHg 69%
18:00 +25°C° 0 mm 3 m/S 742 mmHg 75%
19:00 +22°C° 0 mm 3 m/S 742 mmHg 80%
20:00 +21°C° 0 mm 3 m/S 742 mmHg 85%
21:00 +20°C° 0 mm 3 m/S 742 mmHg 85%
22:00 +19°C° 0 mm 3 m/S 742 mmHg 85%
23:00 +18°C° 0 mm 3 m/S 742 mmHg 85%
Mehr zeigen

Wir brauchen deine Erlaubnis

Meteoprog und unser Service Anbieter werden persönliche Daten aufbewahren, so wie Cookies, Geräte Bezeichnung oder ähnliche Technologien von deinem Gerät und Prozess, so wie Persönliche Daten Inhalte und Werbungen, genauso wie social Media und den Verkehr zu analysieren.

  • Aufbewahrung und/oder Zugang zu deiner Geräte Informationen.

    Cookies, Geräte Bezeichnung oder andere Informationen, können aufbewahrt oder Zugang zu deinem Gerät erhalten, für den Grund, der oben angegeben wird.

  • Personalisierte Werbung und Inhalte, Messungen, Einblick in das Publikum und Produkt Entwicklung.

    Werbungen und Inhalte können personalisiert werden, basierend auf ein Profil. Mehr Daten können besser personalisierte Werbungen und Inhalte hinzufügen. Werbung und Inhalte können gezeigt und gemessen werden. Einblicke über das Publikum, welche die Werbung gesehen haben und den Inhalt, können abgeleitet werden. So wie Daten können genutzt werden, um es zu verbessern oder die Benutzer Erfahrung zu verbessern das System und die Software.

Wenn du “Ich stimme zu” klickst, erlaubst du uns, die Cookies zu benutzen die Geräte Bezeichnung, den Web oder ähnliche Technologien zu benutzen. Deine Settings, können in deinem Gerät bei deinem Browser geändert werden.

Für den bestimmten Zweck, berechtigten Interessen beruhen darauf, mehr als auf den Inhalt. Du kannst mehr darüber in unseren Privaten und Cookie Politik lesen.